Change the Weather History Date:

Saturday, June 1, 2013

  Actual Average Record
Temperature  
Mean Temperature 90 °F -  
Max Temperature 102 °F 93 °F - ()
Min Temperature 78 °F 77 °F - ()
Cooling Degree Days 25    
Growing Degree Days 40 (Base 50)    
Moisture  
Dew Point 56 °F    
Average Humidity 29    
Maximum Humidity 51    
Minimum Humidity 11    
Precipitation  
Precipitation 0.00 in - - ()
Sea Level Pressure  
Sea Level Pressure 29.71 in    
Wind  
Wind Speed 6 mph ()    
Max Wind Speed 23 mph    
Max Gust Speed -    
Visibility 4.4 miles    
Events      
T = Trace of Precipitation, MM = Missing Value Source: Averaged Metar Reports

Daily Weather History Graph

Daily Weather History Graph

Search for Another Location

Airport or City:

Trip Planner

Search our weather history database for the weather conditions in past years. The results will help you decide how hot, cold, wet, or windy it might be!

Date:

Astronomy

Jun. 01, 2013 Rise Set
Actual Time 4:50 AM EET 6:35 PM EET
Civil Twilight 4:24 AM EET 7:01 PM EET
Nautical Twilight 3:52 AM EET 7:32 PM EET
Astronomical Twilight 3:20 AM EET 8:05 PM EET
Moon No Moon Rise 12:15 PM EET
Length of Visible Light 14h 36m
Length of Day
13h 44m
Last Quarter, 43% of the Moon is Illuminated
Jun 1
Last Quarter
Jun 8
New
Jun 16
First Quarter
Jun 23
Full
Jun 30
Last Quarter

Hourly Weather History & Observations

Time (EET) Temp. Heat Index Dew Point Humidity Pressure Visibility Wind Dir Wind Speed Gust Speed Precip Events Conditions
12:00 AM 86.0 °F - 39.2 °F 19% 29.68 in - SW 4.6 mph - N/A   Clear
1:00 AM 86.0 °F - 37.4 °F 18% 29.65 in - SSW 3.5 mph - N/A   Clear
2:00 AM 84 °F - 39 °F 11% 29.67 in 6 mi Calm Calm - -  
2:00 AM 84.2 °F - 39.2 °F 20% 29.65 in - Calm Calm - N/A   Clear
3:00 AM 84.2 °F - 37.4 °F 19% 29.65 in - Calm Calm - N/A   Clear
4:00 AM 80.6 °F - 37.4 °F 21% 29.65 in - Calm Calm - N/A   Clear
5:00 AM 78.8 °F - 39.2 °F 24% 29.68 in - North 4.6 mph - N/A   Clear
6:00 AM 80.6 °F 80.3 °F 53.6 °F 39% 29.68 in - Calm Calm - N/A   Clear
7:00 AM 87.8 °F 86.5 °F 57.2 °F 35% 29.71 in - Calm Calm - N/A   Clear
8:00 AM 96 °F - 58 °F 19% 29.73 in 6 mi WNW 4.6 mph - -  
8:00 AM 95.0 °F 94.4 °F 59.0 °F 30% 29.71 in - WNW 4.6 mph - N/A   Clear
9:00 AM 98.6 °F 98.5 °F 59.0 °F 27% 29.71 in 5.0 mi North 6.9 mph - N/A   Unknown
10:00 AM 98.6 °F - 51.8 °F 21% 29.74 in 5.0 mi North 11.5 mph - N/A   Unknown
11:00 AM 100.4 °F 98.8 °F 55.4 °F 22% 29.74 in 3.7 mi North 17.3 mph - N/A   Unknown
12:00 PM 102.2 °F 104.2 °F 62.6 °F 27% 29.74 in 3.7 mi North 16.1 mph - N/A   Unknown
1:00 PM 100.4 °F 104.9 °F 66.2 °F 33% 29.74 in 3.7 mi NNE 15.0 mph - N/A   Unknown
2:00 PM 101 °F - 65 °F 22% 29.73 in 4 mi North 17.3 mph - -   Blowing Sand
2:00 PM 100.4 °F 103.6 °F 64.4 °F 31% 29.71 in 3.7 mi North 17.3 mph - N/A   Unknown
3:00 PM 100.4 °F 103.6 °F 64.4 °F 31% 29.71 in 3.7 mi North 18.4 mph - N/A   Unknown
4:00 PM 100.4 °F 103.6 °F 64.4 °F 31% 29.71 in 3.7 mi North 23.0 mph - N/A   Unknown
5:00 PM 95.0 °F 97.0 °F 64.4 °F 36% 29.71 in 3.7 mi NNW 16.1 mph - N/A   Unknown
6:00 PM 95.0 °F 97.0 °F 64.4 °F 36% 29.71 in 3.7 mi NNW 16.1 mph - N/A   Unknown
7:00 PM 91.4 °F 93.2 °F 64.4 °F 41% 29.74 in 3.7 mi North 13.8 mph - N/A   Unknown
8:00 PM 89 °F - 66 °F 37% 29.75 in 6 mi NNW 10.4 mph - -  
8:00 PM 87.8 °F 90.4 °F 66.2 °F 49% 29.74 in - NNW 10.4 mph - N/A   Clear
9:00 PM 86.0 °F 88.2 °F 66.2 °F 51% 29.74 in - WNW 5.8 mph - N/A   Clear
10:00 PM 87.8 °F 87.1 °F 59.0 °F 38% 29.77 in - NW 6.9 mph - N/A   Clear
11:00 PM 87.8 °F 86.1 °F 55.4 °F 33% 29.77 in - North 5.8 mph - N/A   Clear